When you browse on this site, cookies collect data to enhance your experience and personalize the content and advertising you see.
Visit our Privacy Policy to learn more. By continuing to use the site, you agree to this use of cookies and data.
  • In Romania
  • List of Countries
  • For 7 days
  • Water Temperature
  • Weather Map
  • Weather Widgets
  • user-avatar
    Login

    Hourly Weather Biskira

    Today, 13 December, Friday

    Time Temperature Precipitation Wind Pressure Humidity
    00:00 +11°C° 0 mm 6 mps 751 mmHg 59%
    01:00 +12°C° 0 mm 5 mps 751 mmHg 61%
    02:00 +12°C° 0 mm 5 mps 751 mmHg 62%
    03:00 +10°C° 0 mm 5 mps 750 mmHg 64%
    04:00 +11°C° 0 mm 4 mps 750 mmHg 66%
    05:00 +11°C° 0 mm 4 mps 750 mmHg 67%
    06:00 +11°C° 0 mm 3 mps 750 mmHg 69%
    07:00 +12°C° 0 mm 4 mps 750 mmHg 66%
    08:00 +13°C° 0 mm 5 mps 750 mmHg 63%
    09:00 +14°C° 0 mm 5 mps 750 mmHg 61%
    10:00 +15°C° 0 mm 6 mps 750 mmHg 58%
    11:00 +17°C° 0 mm 7 mps 749 mmHg 55%
    12:00 +20°C° 0 mm 8 mps 749 mmHg 51%
    13:00 +19°C° 0 mm 9 mps 749 mmHg 51%
    14:00 +19°C° 0 mm 9 mps 748 mmHg 50%
    15:00 +21°C° 0 mm 10 mps 748 mmHg 49%
    16:00 +19°C° 0 mm 10 mps 749 mmHg 51%
    17:00 +18°C° 0 mm 10 mps 749 mmHg 53%
    18:00 +17°C° 0 mm 10 mps 749 mmHg 56%
    19:00 +17°C° 0 mm 10 mps 750 mmHg 57%
    20:00 +16°C° 0 mm 10 mps 750 mmHg 59%
    21:00 +16°C° 0 mm 10 mps 750 mmHg 61%
    22:00 +14°C° 0 mm 10 mps 751 mmHg 62%
    23:00 +15°C° 0 mm 9 mps 751 mmHg 63%

    Tomorrow, 14 December, Saturday

    Time Temperature Precipitation Wind Pressure Humidity
    00:00 +15°C° 0 mm 9 mps 751 mmHg 64%
    01:00 +13°C° 0 mm 9 mps 751 mmHg 66%
    02:00 +13°C° 0 mm 8 mps 751 mmHg 68%
    03:00 +14°C° 0 mm 7 mps 751 mmHg 69%
    04:00 +14°C° 0 mm 7 mps 752 mmHg 69%
    05:00 +12°C° 0 mm 7 mps 752 mmHg 69%
    06:00 +12°C° 0 mm 7 mps 753 mmHg 69%
    07:00 +14°C° 0 mm 7 mps 753 mmHg 66%
    08:00 +15°C° 0 mm 7 mps 754 mmHg 62%
    09:00 +16°C° 0 mm 6 mps 754 mmHg 58%
    10:00 +17°C° 0 mm 6 mps 754 mmHg 54%
    11:00 +19°C° 0 mm 6 mps 754 mmHg 51%
    12:00 +20°C° 0 mm 6 mps 754 mmHg 47%
    13:00 +20°C° 0 mm 5 mps 754 mmHg 47%
    14:00 +21°C° 0 mm 5 mps 754 mmHg 47%
    15:00 +21°C° 0 mm 4 mps 754 mmHg 46%
    16:00 +20°C° 0 mm 4 mps 754 mmHg 50%
    17:00 +19°C° 0 mm 3 mps 754 mmHg 54%
    18:00 +17°C° 0 mm 3 mps 755 mmHg 57%
    19:00 +17°C° 0 mm 2 mps 755 mmHg 59%
    20:00 +16°C° 0 mm 1 mps 755 mmHg 60%
    21:00 +16°C° 0 mm 1 mps 756 mmHg 62%
    22:00 +16°C° 0 mm 1 mps 756 mmHg 62%
    23:00 +15°C° 0 mm 1 mps 756 mmHg 63%

    Day after tomorrow, 15 December, Sunday

    Time Temperature Precipitation Wind Pressure Humidity
    00:00 +14°C° 0 mm 0 mps 755 mmHg 64%
    01:00 +14°C° 0 mm 0 mps 755 mmHg 65%
    02:00 +13°C° 0 mm 0 mps 755 mmHg 66%
    03:00 +13°C° 0 mm 0 mps 755 mmHg 67%
    04:00 +13°C° 0 mm 0 mps 755 mmHg 67%
    05:00 +13°C° 0 mm 0 mps 755 mmHg 68%
    06:00 +12°C° 0 mm 0 mps 755 mmHg 68%
    07:00 +15°C° 0 mm 1 mps 756 mmHg 63%
    08:00 +16°C° 0 mm 1 mps 756 mmHg 57%
    09:00 +19°C° 0 mm 1 mps 756 mmHg 52%
    10:00 +19°C° 0 mm 1 mps 756 mmHg 50%
    11:00 +19°C° 0 mm 2 mps 756 mmHg 48%
    12:00 +20°C° 0 mm 2 mps 755 mmHg 45%
    13:00 +20°C° 0 mm 2 mps 755 mmHg 45%
    14:00 +20°C° 0 mm 2 mps 755 mmHg 45%
    15:00 +20°C° 0 mm 2 mps 755 mmHg 44%
    16:00 +19°C° 0 mm 2 mps 755 mmHg 48%
    17:00 +18°C° 0 mm 2 mps 755 mmHg 52%
    18:00 +17°C° 0 mm 2 mps 755 mmHg 56%
    19:00 +17°C° 0 mm 3 mps 755 mmHg 57%
    20:00 +17°C° 0 mm 3 mps 756 mmHg 59%
    21:00 +16°C° 0 mm 3 mps 756 mmHg 60%
    22:00 +16°C° 0 mm 3 mps 756 mmHg 61%
    23:00 +14°C° 0 mm 3 mps 756 mmHg 63%

    16 December, Monday

    Time Temperature Precipitation Wind Pressure Humidity
    00:00 +14°C° 0 mm 3 mps 756 mmHg 64%
    01:00 +14°C° 0 mm 3 mps 755 mmHg 65%
    02:00 +14°C° 0 mm 2 mps 755 mmHg 67%
    03:00 +14°C° 0 mm 2 mps 755 mmHg 68%
    04:00 +14°C° 0 mm 2 mps 755 mmHg 69%
    05:00 +14°C° 0 mm 2 mps 755 mmHg 69%
    06:00 +12°C° 0 mm 3 mps 755 mmHg 69%
    07:00 +13°C° 0 mm 3 mps 755 mmHg 65%
    08:00 +14°C° 0 mm 4 mps 755 mmHg 61%
    09:00 +15°C° 0 mm 5 mps 755 mmHg 56%
    10:00 +16°C° 0 mm 5 mps 754 mmHg 53%
    11:00 +17°C° 0 mm 5 mps 754 mmHg 49%
    12:00 +19°C° 0 mm 6 mps 753 mmHg 46%
    13:00 +19°C° 0 mm 6 mps 753 mmHg 46%
    14:00 +19°C° 0 mm 6 mps 752 mmHg 46%
    15:00 +19°C° 0 mm 6 mps 752 mmHg 45%
    16:00 +19°C° 0 mm 6 mps 752 mmHg 48%
    17:00 +17°C° 0 mm 5 mps 751 mmHg 51%
    18:00 +16°C° 0 mm 5 mps 751 mmHg 54%
    19:00 +16°C° 0 mm 6 mps 751 mmHg 54%
    20:00 +16°C° 0 mm 6 mps 751 mmHg 53%
    21:00 +16°C° 0 mm 7 mps 751 mmHg 53%
    22:00 +16°C° 0 mm 7 mps 751 mmHg 52%
    23:00 +15°C° 0 mm 7 mps 750 mmHg 51%

    17 December, Tuesday

    Time Temperature Precipitation Wind Pressure Humidity
    00:00 +15°C° 0 mm 7 mps 750 mmHg 49%
    01:00 +15°C° 0 mm 7 mps 750 mmHg 50%
    02:00 +15°C° 0 mm 7 mps 749 mmHg 50%
    03:00 +15°C° 0 mm 7 mps 749 mmHg 50%
    04:00 +15°C° 0 mm 7 mps 749 mmHg 51%
    05:00 +14°C° 0 mm 7 mps 748 mmHg 52%
    06:00 +14°C° 0 mm 7 mps 748 mmHg 53%
    07:00 +15°C° 0 mm 8 mps 748 mmHg 51%
    08:00 +15°C° 0 mm 9 mps 748 mmHg 49%
    09:00 +16°C° 0 mm 9 mps 748 mmHg 47%
    10:00 +17°C° 0 mm 10 mps 747 mmHg 46%
    11:00 +17°C° 0 mm 11 mps 746 mmHg 44%
    12:00 +18°C° 0 mm 11 mps 745 mmHg 42%
    13:00 +18°C° 0 mm 11 mps 745 mmHg 42%
    14:00 +18°C° 0 mm 10 mps 744 mmHg 41%
    15:00 +19°C° 0 mm 10 mps 743 mmHg 41%
    16:00 +18°C° 0 mm 11 mps 743 mmHg 42%
    17:00 +18°C° 0 mm 12 mps 743 mmHg 43%
    18:00 +17°C° 0 mm 13 mps 743 mmHg 44%
    19:00 +17°C° 0 mm 11 mps 744 mmHg 44%
    20:00 +17°C° 0 mm 8 mps 744 mmHg 45%
    21:00 +17°C° 0 mm 6 mps 744 mmHg 45%
    22:00 +15°C° 0 mm 8 mps 744 mmHg 50%
    23:00 +13°C° 0 mm 10 mps 745 mmHg 55%

    18 December, Wednesday

    Time Temperature Precipitation Wind Pressure Humidity
    00:00 +12°C° 0 mm 12 mps 745 mmHg 59%
    01:00 +11°C° 0 mm 10 mps 745 mmHg 59%
    02:00 +11°C° 0 mm 9 mps 746 mmHg 59%
    03:00 +10°C° 0 mm 8 mps 746 mmHg 59%
    04:00 +10°C° 0 mm 6 mps 746 mmHg 61%
    05:00 +10°C° 0 mm 5 mps 747 mmHg 62%
    06:00 +10°C° 0 mm 4 mps 747 mmHg 64%
    07:00 +10°C° 0 mm 6 mps 748 mmHg 61%
    08:00 +11°C° 0 mm 7 mps 748 mmHg 58%
    09:00 +12°C° 0 mm 9 mps 749 mmHg 55%
    10:00 +13°C° 0 mm 9 mps 749 mmHg 50%
    11:00 +15°C° 0 mm 9 mps 749 mmHg 46%
    12:00 +16°C° 0 mm 9 mps 749 mmHg 42%
    13:00 +16°C° 0 mm 8 mps 749 mmHg 41%
    14:00 +16°C° 0 mm 8 mps 750 mmHg 40%
    15:00 +16°C° 0 mm 8 mps 750 mmHg 39%
    16:00 +15°C° 0 mm 7 mps 750 mmHg 42%
    17:00 +14°C° 0 mm 6 mps 751 mmHg 46%
    18:00 +13°C° 0 mm 5 mps 751 mmHg 49%
    19:00 +13°C° 0 mm 5 mps 752 mmHg 51%
    20:00 +12°C° 0 mm 4 mps 752 mmHg 54%
    21:00 +12°C° 0 mm 4 mps 753 mmHg 56%
    22:00 +12°C° 0 mm 4 mps 753 mmHg 59%
    23:00 +11°C° 0 mm 4 mps 753 mmHg 61%
    Show more